KN4QD-13 Weather Reports


Display with metric or nautical units.
time (UTC)temp
F
wind
direction
speed
MPH
gust
MPH
rain 1hr
in
rain 24hr
in
rain mn
in
humidity
%
barometer
mb
20260505130215 56 0.0 2.0 0.00 0.00 0.00 65 1016.2
20260505124215 54 0.0 0.0 0.00 0.00 0.00 70 1016.0
20260505123215 53 0.0 0.0 0.00 0.00 0.00 71 1016.0
20260505122217 52 0.0 0.0 0.00 0.00 0.00 70 1016.0
20260505121215 52 0.0 0.0 0.00 0.00 0.00 71 1015.9
20260505120217 51 0.0 0.0 0.00 0.00 0.00 73 1015.8
20260505115215 51 0.0 0.0 0.00 0.00 0.00 73 1015.8
20260505114217 50 0.0 0.0 0.00 0.00 0.00 73 1015.6
20260505113217 50 0.0 0.0 0.00 0.00 0.00 74 1015.7
20260505112217 49 0.0 0.0 0.00 0.00 0.00 73 1015.4
20260505111217 50 0.0 0.0 0.00 0.00 0.00 72 1015.5
20260505110237 50 0.0 0.0 0.00 0.00 0.00 73 1015.8
20260505102217 50 0.0 0.0 0.00 0.00 0.00 72 1015.8
20260505101217 51 0.0 0.0 0.00 0.00 0.00 71 1016.0
20260505100217 51 0.0 0.0 0.00 0.00 0.00 70 1016.2
20260505095237 52 0.0 0.0 0.00 0.00 0.00 69 1016.4
20260505094217 52 0.0 0.0 0.00 0.00 0.00 69 1016.2
20260505093217 52 0.0 0.0 0.00 0.00 0.00 69 1016.4
20260505092237 52 0.0 0.0 0.00 0.00 0.00 66 1016.4
20260505091217 52 0.0 0.0 0.00 0.00 0.00 65 1016.5
20260505090237 52 0.0 0.0 0.00 0.00 0.00 68 1016.5
20260505085217 52 0.0 0.0 0.00 0.00 0.00 66 1016.5
20260505084217 52 0.0 0.0 0.00 0.00 0.00 67 1016.5
20260505083217 52 0.0 0.0 0.00 0.00 0.00 66 1016.8
20260505082217 52 0.0 0.0 0.00 0.00 0.00 68 1016.8
20260505081217 52 0.0 0.0 0.00 0.00 0.00 66 1016.7
20260505080217 52 0.0 0.0 0.00 0.00 0.00 69 1016.6
20260505075217 52 0.0 0.0 0.00 0.00 0.00 68 1016.4
20260505074216 52 0.0 0.0 0.00 0.00 0.00 70 1016.6
20260505073237 52 0.0 0.0 0.00 0.00 0.00 67 1016.7
20260505072217 52 0.0 0.0 0.00 0.00 0.00 69 1016.8
20260505071237 52 0.0 0.0 0.00 0.00 0.00 69 1016.9
20260505070217 52 0.0 0.0 0.00 0.00 0.00 68 1016.9
20260505065216 52 0.0 0.0 0.00 0.00 0.00 69 1017.1
20260505064217 52 0.0 0.0 0.00 0.00 0.00 68 1017.1
20260505063236 52 0.0 0.0 0.00 0.00 0.00 68 1017.2
20260505062217 52 0.0 0.0 0.00 0.00 0.00 68 1017.3
20260505061236 53 0.0 0.0 0.00 0.00 0.00 68 1017.6
20260505060216 53 0.0 0.0 0.00 0.00 0.00 66 1017.7
20260505055216 53 0.0 0.0 0.00 0.00 0.00 68 1017.4
20260505054216 53 0.0 0.0 0.00 0.00 0.00 66 1017.4
20260505053216 53 0.0 0.0 0.00 0.00 0.00 69 1017.5
20260505052217 53 0.0 0.0 0.00 0.00 0.00 69 1017.2
20260505051216 53 0.0 0.0 0.00 0.00 0.00 68 1017.2
20260505050216 54 0.0 0.0 0.00 0.00 0.00 68 1017.3
20260505041216 54 0.0 0.0 0.00 0.00 0.00 68 1016.6
20260505040312 54 0.0 0.0 0.00 0.00 0.00 70 1016.8
20260505035216 54 0.0 0.0 0.00 0.00 0.00 69 1016.6
20260505034216 54 0.0 0.0 0.00 0.00 0.00 68 1016.7
20260505033236 54 0.0 0.0 0.00 0.00 0.00 67 1016.9
20260505032217 54 0.0 0.0 0.00 0.00 0.00 66 1016.7
20260505031216 55 0.0 0.0 0.00 0.00 0.00 64 1016.6
20260505030216 55 0.0 0.0 0.00 0.00 0.00 64 1016.7
20260505025216 55 0.0 0.0 0.00 0.00 0.00 65 1016.3
20260505024217 55 0.0 0.0 0.00 0.00 0.00 64 1016.3
20260505023216 55 0.0 0.0 0.00 0.00 0.00 63 1016.3
20260505022216 55 0.0 0.0 0.00 0.00 0.00 65 1016.0
20260505021217 55 0.0 0.0 0.00 0.00 0.00 64 1016.0
20260505020216 55 0.0 0.0 0.00 0.00 0.00 64 1016.0
20260505015236 56 0.0 0.0 0.00 0.00 0.00 66 1015.9
20260505014216 56 0.0 0.0 0.00 0.00 0.00 63 1015.7
20260505013216 56 0.0 0.0 0.00 0.00 0.00 64 1015.7
20260505012216 57 0.0 0.0 0.00 0.00 0.00 63 1015.5
20260505011236 57 0.0 0.0 0.00 0.00 0.00 61 1015.4
20260505010216 58 0.0 0.0 0.00 0.00 0.00 61 1015.5
20260505005236 58 0.0 0.0 0.00 0.00 0.00 60 1015.1
20260505004236 59 0.0 0.0 0.00 0.00 0.00 60 1015.0
20260505003216 59 0.0 0.0 0.00 0.00 0.00 61 1015.0
20260505002216 60 0.0 0.0 0.00 0.00 0.00 61 1014.6
20260505001216 60 0.0 0.0 0.00 0.00 0.00 60 1014.9
20260505000236 60 0.0 1.0 0.00 0.00 0.00 60 1014.9
20260504235236 61 0.0 0.0 0.00 0.00 0.00 59 1014.5
20260504234216 61 0.0 0.0 0.00 0.00 0.00 58 1014.4
20260504233216 62 0.0 0.0 0.00 0.00 0.00 57 1014.6
20260504232216 62 90 1.0 2.0 0.00 0.00 0.00 57 1014.5
20260504231236 62 68 1.0 4.0 0.00 0.00 0.00 57 1014.4
20260504230216 63 113 1.0 2.0 0.00 0.00 0.00 55 1014.3
20260504225216 63 0.0 0.0 0.00 0.00 0.00 54 1014.3
20260504224216 64 113 1.0 3.0 0.00 0.00 0.00 53 1014.6
20260504223216 64 0.0 1.0 0.00 0.00 0.00 52 1014.6
20260504222216 65 0.0 1.0 0.00 0.00 0.00 52 1014.6
20260504221236 66 0.0 0.0 0.00 0.00 0.00 51 1014.5
20260504220236 66 0.0 1.0 0.00 0.00 0.00 50 1014.8
20260504215216 66 0.0 0.0 0.00 0.00 0.00 48 1014.8
20260504214216 67 113 2.0 6.0 0.00 0.00 0.00 47 1014.9
20260504213216 67 0.0 0.0 0.00 0.00 0.00 43 1014.7
20260504212236 67 0.0 1.0 0.00 0.00 0.00 41 1014.8
20260504211216 68 0.0 0.0 0.00 0.00 0.00 41 1014.9
20260504210216 68 0.0 0.0 0.00 0.00 0.00 39 1014.8
20260504205216 68 90 2.0 3.0 0.00 0.00 0.00 38 1014.8
20260504204216 68 0.0 0.0 0.00 0.00 0.00 37 1014.8
20260504203216 68 0.0 1.0 0.00 0.00 0.00 36 1015.0
20260504202216 69 90 1.0 2.0 0.00 0.00 0.00 37 1015.1
20260504201216 70 0.0 1.0 0.00 0.00 0.00 36 1015.3
20260504200215 70 90 1.0 2.0 0.00 0.00 0.00 35 1015.4
20260504195215 70 0.0 1.0 0.00 0.00 0.00 32 1015.3
20260504194216 70 113 2.0 3.0 0.00 0.00 0.00 31 1015.5
20260504193256 70 68 3.0 5.0 0.00 0.00 0.00 32 1015.6
20260504192236 70 0.0 0.0 0.00 0.00 0.00 34 1015.9
20260504191216 70 0.0 0.0 0.00 0.00 0.00 33 1015.9
20260504190215 70 90 3.0 4.0 0.00 0.00 0.00 30 1016.0
20260504185216 71 0.0 1.0 0.00 0.00 0.00 35 1016.2
20260504184215 72 0.0 1.0 0.00 0.00 0.00 34 1016.7
20260504183215 73 113 1.0 3.0 0.00 0.00 0.00 32 1017.1
20260504182256 74 0.0 1.0 0.00 0.00 0.00 32 1017.1
20260504181215 73 68 2.0 2.0 0.00 0.00 0.00 29 1017.1
20260504180216 73 68 1.0 4.0 0.00 0.00 0.00 29 1017.1
20260504175215 72 203 1.0 3.0 0.00 0.00 0.00 30 1017.3
20260504174215 72 113 1.0 2.0 0.00 0.00 0.00 35 1017.6
20260504173215 72 0.0 1.0 0.00 0.00 0.00 33 1017.7
20260504172215 70 113 1.0 2.0 0.00 0.00 0.00 32 1017.8
20260504171216 72 45 2.0 5.0 0.00 0.00 0.00 35 1018.2
20260504170236 70 0.0 1.0 0.00 0.00 0.00 38 1018.1
20260504160215 63 180 1.0 3.0 0.00 0.00 0.00 45 1018.5
20260504150215 58 90 2.0 3.0 0.00 0.00 0.00 52 1018.5
20260504141215 54 0.0 1.0 0.00 0.00 0.00 58 1018.5
20260504140215 52 0.0 1.0 0.00 0.00 0.00 62 1018.4